Tracking 22879 objects as of 22-Apr-2021
HD Live streaming from Space Station
objects crossing your sky now

ASTROCAST-01

Track ASTROCAST-01 now!
10-day predictions


NORAD ID: 43798
Int'l Code: 2018-099AS
Perigee: 578.1 km
Apogee: 594.0 km
Inclination: 97.7 °
Period: 96.2 minutes
Semi major axis: 6957 km
RCS: Unknown
Launch date: December 3, 2018
Source: (SWTZ)
Launch site: AIR FORCE WESTERN TEST RANGE (AFWTR)
aabbcc
Your satellite tracking list
Your tracking list is empty




NASA's NSSDC Master Catalog

Two Line Element Set (TLE):
1 43798U 18099AS  21111.77346059  .00000193  00000-0  22266-4 0  9990
2 43798  97.6698 184.4060 0011399 218.3509 141.6903 14.96110367130042
Source of the keplerian elements: AFSPC